Location: Amsterdam
(30.7274°N, 84.4357°W)
Time: 02:58:26
(UTC+00:00)

Tiros 1 - Pass Details

Date: 18 February 2026
Orbit: 618 x 649 km, 48.4° (Epoch: 7 March)

Event Time Altitude Azimuth Distance (km) Brightness Sun altitude
Rises 14:50:35 0° 275° (W) 2,909 10.1 29.4°
Reaches altitude 10° 14:53:41 10° 296° (WNW) 1,997 9.2 30.0°
Maximum altitude 14:56:36 16° 336° (NNW) 1,610 8.9 30.4°
Drops below altitude 10° 14:59:31 10° 16° (NNE) 1,989 9.5 30.9°
Sets 15:02:37 0° 37° (NE) 2,892 10.5 31.5°
